Regional Weather Roundup
Issued by NWS

Current Version | Previous Version | Text Only | Print | Product List | Glossary On
Versions: 1 2 3 4 5 6 7 8 9 10 11 12 13 14 15 16 17 18 19 20 21 22 23 24 25 26 27 28 29 30 31 32 33 34 35 36 37 38 39 40 41 42 43 44 45 46 47 48 49 50
000
ASCA42 TJSJ 181310
RWRPR
PUERTO RICO/U.S. VIRGIN ISLANDS HOURLY WEATHER ROUNDUP
NATIONAL WEATHER SERVICE SAN JUAN PR
900 AM AST SAT APR 18 2015

PRZ001-004-181400-
PUERTO RICO

CITY           SKY/WX    TMP DP  RH WIND       PRES   REMARKS
SAN JUAN LMM   MOSUNNY   81  73  78 VRB3      30.07R
PONCE          MOSUNNY   84  72  65 SE12      29.99
AGUADILLA      SUNNY     81  66  61 CALM      30.08R
CEIBA          CLOUDY    82  72  69 SE8       30.09S
$$

PRZ006-007-181400-
U.S. VIRGIN ISLANDS

CITY           SKY/WX    TMP DP  RH WIND       PRES   REMARKS
$$

HOURLY WEATHER ROUNDUP FOR THE NEWS MEDIA

CITY           SKY/WX    TMP DP  RH WIND       PRES   REMARKS
ORLANDO        MOSUNNY   76  71  85 S5        29.98S
NEW YORK       MOSUNNY   64  46  52 W3        30.01S
NEWARK         MOSUNNY   66  47  50 W6        30.00S
CHICAGO        PTSUNNY   64  46  52 NE8       30.04S
HARTFORD       SUNNY     61  47  59 VRB3      29.94S
BOSTON         SUNNY     59  44  57 NW6       29.94F
DALLAS         MOSUNNY   63  60  90 CALM      29.88F
PHILADELPHIA   MOSUNNY   65  51  60 CALM      30.03S
LOS ANGELES    CLEAR     56  47  71 CALM      30.00S
WASHINGTON DC  MOSUNNY   65  53  65 N5        30.04S



USA.gov is the U.S. government's official web portal to all federal, state and local government web resources and services.